Regional Weather Roundup
Issued by NWS

Home | Current Version | Previous Version | Text Only | Print | Product List | Glossary Off
Versions: 1 2 3 4 5 6 7 8 9 10 11 12 13 14 15 16 17 18 19 20 21 22 23 24 25 26 27 28 29 30 31 32 33 34 35 36 37 38 39 40 41 42 43 44 45 46 47 48 49 50

659
ASUS45 KBOU 291107
RWRCO

WEATHER ROUNDUP FOR COLORADO
NATIONAL WEATHER SERVICE DENVER/BOULDER CO
500 AM MDT WED MAR 29 2017

NOTE: "FAIR" INDICATES FEW OR NO CLOUDS BELOW 12000 FEET WITH NO
SIGNIFICANT WEATHER AND/OR OBSTRUCTIONS TO VISIBILITY.

COZ001>005-013-030-031-291200-
...NORTHWEST COLORADO...

CITY           SKY/WX    TMP DP  RH WIND       PRES   REMARKS
CRAIG          CLOUDY    31  27  85 CALM      30.15R
HAYDEN         FAIR      27  23  86 CALM      30.13S
MEEKER         CLOUDY    32  29  88 W3        30.15R
MOUNT WERNER   NOT AVBL
STEAMBOAT SPGS FAIR      30  29  96 CALM      30.12R
WALDEN         NOT AVBL
$$

COZ006>008-011-291200-
...WEST CENTRAL VALLEYS...

CITY           SKY/WX    TMP DP  RH WIND       PRES   REMARKS
GRAND JUNCTION CLOUDY    37  32  82 N3        30.09R
MONTROSE       FAIR      33  30  88 E6        30.08R WCI  28
EAGLE          CLOUDY    40  26  57 SW3       30.10R
RIFLE          MOCLDY    40  30  67 NW12      30.10R
DELTA          FAIR      40  33  75 NW5       30.05R
NUCLA          FAIR      37  28  70 NW5       30.08R
$$

COZ017>023-064>068-291200-
...SOUTHWEST COLORADO...

CITY           SKY/WX    TMP DP  RH WIND       PRES   REMARKS
DURANGO        FAIR      33  31  92 E5        29.92R WCI  29
CORTEZ         FAIR      41  30  65 MISG      29.98R
PAGOSA SPRINGS MOCLDY    35  33  92 CALM      29.93R
TELLURIDE      NOT AVBL
WOLF CREEK PAS CLOUDY    21  21 100 MISG      30.02S
$$

COZ009-010-012-014-032>034-037-058>063-291200-
...CENTRAL COLORADO...

CITY           SKY/WX    TMP DP  RH WIND       PRES   REMARKS
ASPEN          CLOUDY    33  29  85 CALM      30.06R
BUENA VISTA    CLOUDY    37  25  63 N8        30.02S
COPPER MTN     CLOUDY    23  18  80 MISG      30.08S
BERTHOUD PASS  SNOW      16   5  62 NE3       30.09S VSB<1/4
COTTONWOOD PAS CLOUDY    32  25  74 CALM      30.04S
GUNNISON       FAIR      32  30  92 CALM      30.02R
KREMMLING      FAIR      37  30  75 N7        30.10R
LEADVILLE      CLOUDY    25  20  81 N9        30.04S WCI  15
MONARCH PASS   CLOUDY    21  19  93 MISG      30.10S
SALIDA         CLOUDY    35  34  94 E6        30.09R WCI  30
SUNLIGHT       CLOUDY   N/A N/A N/A N7        30.16R
WILKERSON PASS CLOUDY   N/A N/A N/A NE12G20   30.06R FOG
$$

COZ069>075-291200-
...SAN LUIS VALLEY/SANGRE DE CRISTO MOUNTAINS...

CITY           SKY/WX    TMP DP  RH WIND       PRES   REMARKS
ALAMOSA        CLOUDY    36  31  82 N13       29.95R
LA VETA PASS   NOT AVBL
SAGUACHE       FAIR      36  28  75 NW9       29.98S
$$

COZ035-036-038>040-291200-
...NORTHERN COLORADO FRONT RANGE...

CITY           SKY/WX    TMP DP  RH WIND       PRES   REMARKS
DENVER INTL AP FLURRIES  35  34  96 N9        30.07S WCI  28
DMNS CITY PARK   N/A     37  36  96 MISG      30.08S
AURORA         FLURRIES  34  34 100 N8        30.08R WCI  27
FRONT RANGE AP CLOUDY    36  36 100 N9        30.07S
ERIE MUNI ARPT DRIZZLE   38  37  94 NW3       30.09S
BOULDER MUN AP DRIZZLE   37  36  93 W6        30.08F
CENTENNIAL     LGT SNOW  33  32  96 N10       30.07S VSB 1   WCI  25
BROOMFIELD     DRIZZLE   36  36 100 NW8       30.09S
FORT COLLINS   FAIR      38  36  92 N5        30.09F
LONGMONT       CLOUDY    40  37  90 NW5       30.11F
$$

COZ041-046-047-076>085-087-088-291200-
...PIKES PEAK/PALMER DIVIDE AND SOUTHERN FOOTHILLS...

CITY           SKY/WX    TMP DP  RH WIND       PRES   REMARKS
COLO. SPRINGS  CLOUDY    35  29  78 N16       30.02S WCI  25
A. F. ACADEMY  FLURRIES  33  33  99 N16G24    30.00F WCI  22
SCHRIEVER AFB  MOCLDY    34  30  85 N16G23    30.01S WCI  23
ELLICOTT       CLOUDY   N/A N/A N/A N21       29.98F
FALCON         CLOUDY    32  30  92 N14G21    30.02S WCI  22
FORT CARSON    CLOUDY    37  30  75 N20G25    29.99S
LIMON          CLOUDY    33  33 100 NW17      30.01R WCI  22
MONUMENT HILL  LGT SNOW  30  30 100 N15       30.05S WCI  19
TRINIDAD       LGT SNOW  33  31  92 N12       29.98R VSB 1   WCI  24
$$

COZ042>045-048>051-090-091-291200-
...NORTHEAST COLORADO...

CITY           SKY/WX    TMP DP  RH WIND       PRES   REMARKS
GREELEY ARPT   CLOUDY    37  35  92 N6        30.10F
AKRON          LGT RAIN  35  33  92 N13       30.05F FOG     WCI  26
BURLINGTON     CLOUDY    38  37  97 N20       29.98R
WRAY           NOT AVBL
STERLING       DRIZZLE   37  36  93 N7        30.06F
HOLYOKE        LGT RAIN  41  37  87 N13       30.05F
FORT MORGAN    CLOUDY    37  35  94 N10       30.08R
$$

COZ086-089-092>099-291200-
...SOUTHEAST COLORADO...

CITY           SKY/WX    TMP DP  RH WIND       PRES   REMARKS
PUEBLO         CLOUDY    40  35  83 N8        30.01S
LA JUNTA       CLOUDY    40  37  89 N16       29.99R
LAMAR          CLOUDY    40  37  89 N16       29.93R
SPRINGFIELD      N/A     37  36  96 N26G32    29.87S
$$




USA.gov is the U.S. government's official web portal to all federal, state and local government web resources and services.